Lexington Weather

Lexington, Massachusetts, USA

44°F
9/20/2020 11:02pm 
  • Lexington Conditions: Clear
  • Temperature: 43.7°F / 6.5°CColder 0.7°F than last hour.
  • Dew Point: 37.9°FIncreased 0.5°Fsince last hour.
  • Relative Humidity: 80%Increased 4.0% since last hour.
  • Wind: Calm, 10-min avg: Calm, gust: None
  • Barometer: 30.53 in Steady
  • Visibility: 10 miles
  • Rain Today: 0.00 in
  •   
Southeast Middlesex County - Special Weather Statement - Special Weather Statement
 - SEE ALL NEARBY ALERTS -

Regional Weather Roundup
for Boston / Norton, MA

        
000
ASUS41 KBOX 150604
RWRBOX

REGIONAL WEATHER ROUNDUP
NATIONAL WEATHER SERVICE BOSTON/NORTON MA
200 AM EDT TUE SEP 15 2020

NOTE:  "FAIR" INDICATES FEW OR NO CLOUDS BELOW 12,000 FEET WITH NO 
SIGNIFICANT WEATHER AND/OR OBSTRUCTIONS TO VISIBILITY.

MAZALL-150700-
EASTERN MASSACHUSETTS
  
CITY           SKY/WX    TMP DP  RH WIND       PRES   REMARKS
BOSTON         PTCLDY    53  38  56 N10       30.25S                  
6HR MIN TEMP:  52; 6HR MAX TEMP:  64;                                

BEVERLY        CLEAR     47  39  74 NW6       30.24S                  
LAWRENCE       CLEAR     49  39  68 CALM      30.27S                  
BEDFORD        CLEAR     45  39  79 CALM      30.24F                  
BLUE HILL        N/A     49  37  63 N10       30.22F                  
NORWOOD        CLEAR     50  38  63 CALM      30.25R                  
MARSHFIELD     MOCLDY    57  45  62 VRB7G15   30.23S                  
PLYMOUTH       CLEAR     52  41  66 N9        30.23S                  
TAUNTON        CLEAR     51  39  63 CALM      30.23S                  
NEW BEDFORD    CLEAR     51  40  65 VRB3      30.22S                  
$$

MAZALL-150700-
CAPE COD AND THE ISLANDS
  
CITY           SKY/WX    TMP DP  RH WIND       PRES   REMARKS
FALMOUTH       MOCLDY    59  41  51 NE14G25   30.21S                  
HYANNIS        PTCLDY    59  45  59 N14G24    30.19R                  
CHATHAM        PTCLDY    59  45  59 VRB7      30.21R                  
PROVINCETOWN   PTCLDY    58  45  62 N17G25    30.22S                  
NANTUCKET      PTCLDY    60  46  59 N18G25    30.18S                  
MARTHAS VNYRD  CLEAR     56  43  61 N10       30.21R                  
$$
 
MAZALL-150700-
CENTRAL AND WESTERN MASSACHUSETTS
  
CITY           SKY/WX    TMP DP  RH WIND       PRES   REMARKS
WORCESTER      CLEAR     48  36  63 N7        30.25S                  
6HR MIN TEMP:  48; 6HR MAX TEMP:  60;                                

FITCHBURG      CLEAR     48  36  63 CALM      30.27R                  
ORANGE         CLEAR     46  39  76 CALM      30.29R                  
SPRINGFIELD    CLEAR     46  39  78 N5        30.27S                  
WESTFIELD      CLEAR     45  41  86 CALM      30.28S                  
NORTH ADAMS    CLEAR     41  39  93 VRB3      30.31R                  
PITTSFIELD     CLEAR     42  37  82 NW5       30.28S                  
$$
 
RIZALL-150700-
RHODE ISLAND
  
CITY           SKY/WX    TMP DP  RH WIND       PRES   REMARKS
PROVIDENCE     CLEAR     54  38  54 N10       30.25S                  
6HR MIN TEMP:  54; 6HR MAX TEMP:  68;                                

NEWPORT        CLEAR     55  39  54 N13       30.23R                  
BLOCK ISLAND   CLEAR     55  39  54 N16G23    30.23R                  
SMITHFIELD     CLEAR     49  39  68 N6        30.25S                  
WESTERLY       CLEAR     53  37  54 N10       30.24S                  
$$
 
CTZALL-150700-
CONNECTICUT
  
CITY           SKY/WX    TMP DP  RH WIND       PRES   REMARKS
BRADLEY INTL   CLEAR     50  39  66 N5        30.27S                  
6HR MIN TEMP:  49; 6HR MAX TEMP:  63;                                

HARTFORD       CLEAR     54  38  54 N7        30.27S                  
BRIDGEPORT     CLEAR     56  42  59 N8        30.26S                  
DANBURY        CLEAR     52  40  63 N6        30.28F                  
GROTON         CLEAR     54  38  54 N13       30.23S                  
NEW HAVEN      CLEAR     56  42  59 N9        30.26R                  
CHESTER        NOT AVBL                                               
MERIDEN        CLEAR     54  38  54 N9        30.27R                  
WILLIMANTIC    CLEAR     50  38  63 N6        30.27R                  
OXFORD         CLEAR     49  43  80 N8        30.27S                  
$$

MEZ002-015-021-024-NHZ003-005-008-011-012-014-VTZ005-008-150700-
NORTHERN NEW ENGLAND
  
CITY           SKY/WX    TMP DP  RH WIND       PRES   REMARKS
PORTLAND ME    CLEAR     49  38  65 CALM      30.25R                  
6HR MIN TEMP:  45; 6HR MAX TEMP:  58;                                

BANGOR ME      CLEAR     49  37  63 W7        30.21S                  
CONCORD NH     CLEAR     43  36  76 CALM      30.25F                  
MANCHESTER NH  CLEAR     52  38  58 N7        30.24S                  
NASHUA NH      CLEAR     49  41  74 CALM      30.26F                  
PORTSMOUTH NH  CLEAR     47  38  71 NW5       30.23                   
JAFFREY NH     CLEAR     47  36  65 CALM      30.27S                  
KEENE NH       CLEAR     42  40  92 NE3       30.29S                  
BURLINGTON VT  CLEAR     45  41  86 E3        30.33F                  
MT. WASHINGTON NOT AVBL                                               
$$

NYZ052-076-150700-
EASTERN NEW YORK
  
CITY           SKY/WX    TMP DP  RH WIND       PRES   REMARKS
ALBANY         CLEAR     44  40  85 NW5       30.33S                  
6HR MIN TEMP:  44; 6HR MAX TEMP:  55;                                

NEW YORK CITY  MOCLDY    60  41  49 N15G21    30.27R                  
6HR MIN TEMP:  60; 6HR MAX TEMP:  71;                                

$$
 
ANZALL-150700-
MARINE OBSERVATIONS
  
STATION/POSITION TIME  TEMP    WIND        PRES    VSBY  WAVE
                       AIR SEA DIR/SP/G                  HT/PER
                 (UTC) (F)     (DEG/KT/KT) (MB)    (MI)  (FT/S)
BOSTON BUOY      0550   57 63  350/ 16/ 19 1022.6R         5/ 7
BUZZARDS BAY     0500          360/ 21/ 24 1023.7R
NANTUCKET SOUND  0540      71   10/ 21/ 27   N/A
MASS BAY-STELLWA 0504   59      40/ 19/ 23 1021.7R  1 7/8  7/11
ISLE OF SHOALS   0500   56     350/ 14/ 17 1023.5R
S OF BLOCK IS    0526      70                N/A           7/11
$$

......................KEY.........................
  SKY/WX - SKY CONDITION/PRESENT WEATHER
  TMP    - TEMPERATURE IN FAHRENHEIT
  DWPT   - DEWPOINT IN FAHRENHEIT
  RH     - RELATIVE HUMIDITY IN PERCENT
  WIND   - DIRECTION AND SPEED IN MPH
  PRES   - MEAN SEA LEVEL PRESSURE IN INCHES OF HG
  WCI    - WIND CHILL INDEX
  VSB    - VISIBILITY IN MILES
  HX     - HEAT INDEX
  TC     - TEMPERATURE IN CELSIUS
  VRB    - VARIABLE WIND DIRECTION
  N/A    - NOT AVAILABLE
  
      

Other recent Regional Weather Roundups

Sun Sep 20, 10:04pm

Sun Sep 20, 9:04pm

Sun Sep 20, 8:05pm

Sun Sep 20, 7:04pm

Sun Sep 20, 6:04pm

Sun Sep 20, 5:04pm

Sun Sep 20, 4:04pm

Sun Sep 20, 3:05pm

Sun Sep 20, 2:05pm

Sun Sep 20, 1:04pm

Sun Sep 20, 12:04pm

Sun Sep 20, 11:04am

Sun Sep 20, 10:04am

Sun Sep 20, 9:04am

Sun Sep 20, 8:04am

Sun Sep 20, 7:04am

Sun Sep 20, 6:04am

Sun Sep 20, 5:04am

Sun Sep 20, 4:04am

Sun Sep 20, 3:05am

Sun Sep 20, 2:04am

Sun Sep 20, 1:04am

Sun Sep 20, 12:04am

Sat Sep 19, 11:04pm

Sat Sep 19, 10:04pm

Sat Sep 19, 9:04pm

Sat Sep 19, 8:05pm

Sat Sep 19, 7:04pm

Sat Sep 19, 6:05pm

Sat Sep 19, 5:04pm

Sat Sep 19, 4:04pm

Sat Sep 19, 3:04pm

Sat Sep 19, 2:04pm

Sat Sep 19, 1:05pm

Sat Sep 19, 12:04pm

Sat Sep 19, 11:04am

Sat Sep 19, 10:04am

Sat Sep 19, 9:05am

Sat Sep 19, 8:04am

Sat Sep 19, 7:04am

Sat Sep 19, 6:04am

Sat Sep 19, 5:04am

Sat Sep 19, 4:04am

Sat Sep 19, 3:04am

Sat Sep 19, 2:04am

Sat Sep 19, 1:04am

Sat Sep 19, 12:04am

Fri Sep 18, 11:05pm

Fri Sep 18, 10:04pm

Fri Sep 18, 9:04pm

Fri Sep 18, 8:04pm

Fri Sep 18, 7:04pm

Fri Sep 18, 6:04pm

Fri Sep 18, 5:05pm

Fri Sep 18, 4:04pm

Fri Sep 18, 3:05pm

Fri Sep 18, 2:04pm

Fri Sep 18, 1:04pm

Fri Sep 18, 12:04pm

Fri Sep 18, 11:05am

Fri Sep 18, 10:05am

Fri Sep 18, 9:04am

Fri Sep 18, 8:04am

Fri Sep 18, 7:04am

Fri Sep 18, 6:04am

Fri Sep 18, 5:04am

Fri Sep 18, 4:04am

Fri Sep 18, 3:04am

Fri Sep 18, 2:04am

Fri Sep 18, 1:04am

Fri Sep 18, 12:04am

Thu Sep 17, 11:05pm

Thu Sep 17, 10:04pm

Thu Sep 17, 9:04pm

Thu Sep 17, 8:05pm

Thu Sep 17, 7:04pm

Thu Sep 17, 6:04pm

Thu Sep 17, 5:04pm

Thu Sep 17, 4:04pm

Thu Sep 17, 3:05pm

Thu Sep 17, 2:04pm

Thu Sep 17, 1:04pm

Thu Sep 17, 12:04pm

Thu Sep 17, 11:04am

Thu Sep 17, 10:04am

Thu Sep 17, 9:04am

Thu Sep 17, 8:04am

Thu Sep 17, 7:04am

Thu Sep 17, 6:04am

Thu Sep 17, 5:04am

Thu Sep 17, 4:04am

Thu Sep 17, 3:04am

Thu Sep 17, 2:05am

Thu Sep 17, 1:05am

Thu Sep 17, 12:04am

Wed Sep 16, 11:04pm

Wed Sep 16, 10:04pm

Wed Sep 16, 9:04pm

Wed Sep 16, 8:05pm

Wed Sep 16, 7:04pm

Wed Sep 16, 6:04pm

Wed Sep 16, 5:04pm

Wed Sep 16, 4:04pm

Wed Sep 16, 3:04pm

Wed Sep 16, 2:04pm

Wed Sep 16, 1:04pm

Wed Sep 16, 12:04pm

Wed Sep 16, 11:04am

Wed Sep 16, 10:04am

Wed Sep 16, 9:04am

Wed Sep 16, 8:04am

Wed Sep 16, 7:04am

Wed Sep 16, 6:04am

Wed Sep 16, 5:04am

Wed Sep 16, 4:04am

Wed Sep 16, 3:04am

Wed Sep 16, 2:04am

Wed Sep 16, 1:04am

Wed Sep 16, 12:05am

Tue Sep 15, 11:04pm

Tue Sep 15, 10:04pm

Tue Sep 15, 9:04pm

Tue Sep 15, 8:04pm

Tue Sep 15, 7:04pm

Tue Sep 15, 6:04pm

Tue Sep 15, 5:04pm

Tue Sep 15, 4:05pm

Tue Sep 15, 3:04pm

Tue Sep 15, 2:04pm

Tue Sep 15, 1:04pm

Tue Sep 15, 12:04pm

Tue Sep 15, 11:04am

Tue Sep 15, 10:04am

Tue Sep 15, 9:04am

Tue Sep 15, 8:04am

Tue Sep 15, 7:04am

Tue Sep 15, 6:04am

Tue Sep 15, 5:04am

Tue Sep 15, 4:04am

Tue Sep 15, 3:04am

Tue Sep 15, 1:04am

Tue Sep 15, 12:05am

Mon Sep 14, 11:04pm

Mon Sep 14, 10:04pm

Mon Sep 14, 9:04pm

Mon Sep 14, 8:04pm

Mon Sep 14, 7:04pm

Mon Sep 14, 6:04pm

Mon Sep 14, 5:04pm

Mon Sep 14, 4:05pm

Mon Sep 14, 3:04pm

Mon Sep 14, 2:05pm

Mon Sep 14, 1:04pm

Mon Sep 14, 12:04pm

Mon Sep 14, 11:04am

Mon Sep 14, 10:05am

Mon Sep 14, 9:04am

Mon Sep 14, 8:04am

Mon Sep 14, 7:04am

Mon Sep 14, 6:04am

Mon Sep 14, 5:04am

Mon Sep 14, 4:04am

Mon Sep 14, 3:04am

Mon Sep 14, 2:04am

Mon Sep 14, 1:04am

Mon Sep 14, 12:04am

Sun Sep 13, 11:05pm

Meta data:

ID: 77709e47-66be-4ef9-b534-2745d6ec2594
Link: https://api.weather.gov/products/77709e47-66be-4ef9-b534-2745d6ec2594